Theta_e
302 303 303 303 303 303 304 304 304 303 302 303 302 307 304 304 298 314 317 319 315 305 296 299 296 297 298 302 301 302 300 299 301 299 300 298 300 298 297 297 296 298 296 296 296 296 294 294 293 295 295 295 298 300 301 300 299 298 296 297 299 299 289 288 290 293 295 297 298 298 299 298 295 296 297 295 292 293 291 290 291 288 288 286 286 284 288
302 303 303 303 303 303 303 303 304 303 303 302 304 302 302 304 305 306 313 317 310 301 291 291 293 297 299 300 299 302 300 300 298 298 299 297 297 297 297 298 299 296 299 298 294 297 289 295 295 294 296 295 301 300 300 299 297 296 297 293 300 290 293 290 285 285 287 290 293 293 296 296 293 293 296 296 296 295 295 294 294 287 288 289 286 281 286
302 302 303 302 303 303 303 303 303 303 303 304 304 300 304 303 308 304 306 310 308 296 298 295 292 295 296 297 296 297 298 300 300 299 298 300 299 298 297 298 299 298 299 297 297 298 295 293 296 296 296 295 300 300 300 299 298 302 302 304 302 293 293 291 284 281 279 279 281 283 286 290 293 295 295 296 294 294 292 286 289 285 289 290 286 286 293
302 302 302 302 302 303 303 303 303 302 303 303 304 305 302 302 291 300 302 305 303 301 302 299 296 295 296 292 296 298 296 299 301 299 298 299 299 299 299 299 300 297 297 295 295 294 298 294 294 294 294 296 298 300 300 299 300 303 305 302 300 293 295 292 290 287 285 287 289 294 294 293 289 292 293 294 295 295 295 292 287 285 288 287 290 290 291
302 302 302 302 302 302 303 303 302 302 302 303 303 306 307 304 295 295 294 301 302 299 300 297 298 293 298 290 296 295 296 297 298 301 296 299 297 297 297 297 295 295 295 294 294 295 294 296 295 294 294 296 296 300 299 299 302 303 299 300 296 293 288 291 292 291 290 292 291 293 293 290 291 291 291 293 294 294 292 288 286 293 287 283 291 293 290
301 301 302 302 302 302 302 302 302 301 302 303 308 302 302 294 299 301 301 294 293 294 294 298 298 299 299 295 298 295 295 296 293 297 299 299 300 295 296 296 296 295 294 295 290 293 293 294 291 295 295 295 297 295 298 297 303 300 297 299 295 291 286 291 291 290 291 292 292 293 292 292 292 292 292 292 293 293 291 290 293 293 287 284 290 293 291
301 301 301 302 302 302 302 302 302 301 301 304 306 297 301 301 299 300 303 297 299 298 298 299 298 296 297 296 297 295 295 294 296 296 296 297 297 297 289 293 295 296 296 295 292 294 289 288 297 296 295 294 295 293 295 297 300 298 296 297 299 294 288 292 292 290 291 292 292 293 292 292 292 292 292 292 293 292 293 292 293 292 291 292 292 293 292
301 301 301 301 302 302 302 302 302 301 300 307 302 297 295 295 295 294 300 302 299 298 298 297 296 294 297 290 294 295 295 294 296 297 296 291 294 298 294 295 296 296 295 295 292 295 296 295 291 298 297 296 297 295 296 295 299 298 295 296 298 293 288 292 292 289 289 292 292 292 291 291 289 291 292 292 292 292 292 293 293 294 292 293 293 291 290
302 301 301 301 301 301 302 302 302 300 301 304 299 297 297 299 303 302 297 294 296 295 296 296 295 292 295 292 295 294 295 294 296 295 298 294 293 296 294 296 296 297 296 296 295 296 297 297 296 298 296 292 298 294 295 297 294 295 295 296 296 294 289 293 292 286 285 290 290 291 291 291 290 289 291 291 291 289 291 289 293 291 289 291 291 288 288
302 301 301 301 301 301 301 301 302 301 302 303 300 294 299 300 303 304 300 292 296 293 296 296 294 290 294 295 294 294 293 295 296 291 296 297 297 295 295 296 294 295 295 294 295 297 297 297 297 297 298 299 298 298 297 297 296 295 294 297 293 293 290 288 288 284 284 289 291 290 289 288 284 286 289 291 292 292 293 294 295 294 294 288 287 287 293
301 301 301 301 301 301 301 301 301 301 301 299 299 297 297 295 295 299 299 292 293 294 293 293 292 293 295 296 294 296 295 295 296 290 290 297 296 298 297 295 294 292 292 294 298 299 299 299 299 299 298 297 297 297 297 297 296 295 294 294 293 293 291 288 290 282 283 288 289 290 284 278 280 291 295 294 291 291 290 290 292 294 295 291 293 293 295
301 301 301 300 301 301 301 301 301 302 301 302 303 300 299 300 299 299 295 290 290 295 293 289 291 293 293 293 294 293 293 294 294 295 292 296 297 298 297 295 295 288 295 300 300 299 300 300 299 299 297 296 295 296 296 295 295 297 296 293 291 290 290 287 290 284 283 287 287 282 276 279 291 295 296 296 295 294 292 292 293 293 294 294 293 294 295
301 301 301 300 300 300 300 301 301 301 302 302 303 299 301 302 299 297 295 293 289 290 289 292 295 294 294 295 293 294 295 295 296 296 295 295 294 295 296 294 293 293 298 297 298 297 293 292 293 293 294 295 295 295 294 294 293 295 296 296 293 288 288 288 286 287 286 284 282 274 277 288 293 294 295 296 295 294 292 289 292 293 294 294 293 293 295
301 300 301 300 300 300 300 300 301 302 302 302 302 302 301 301 297 296 295 291 290 294 294 293 293 292 292 293 294 294 295 294 295 296 293 296 294 294 296 296 296 297 298 298 295 294 290 290 286 287 288 290 290 289 292 294 294 294 294 295 295 293 291 288 284 287 280 282 281 281 288 287 289 289 291 292 289 290 288 283 288 294 293 294 293 293 294
301 300 300 300 300 300 300 300 301 301 302 302 303 304 301 301 301 298 300 297 290 292 293 286 288 291 292 293 293 290 292 293 291 292 295 296 295 296 296 296 298 297 298 295 291 292 288 287 283 282 284 283 280 283 291 288 293 295 295 295 295 294 288 289 284 283 285 281 279 280 280 277 283 290 294 296 296 296 294 290 285 294 294 294 293 291 293
301 300 301 300 300 300 300 300 300 301 301 302 303 303 303 303 303 302 299 297 292 286 289 292 293 293 292 293 294 291 289 289 291 291 292 293 293 295 297 297 298 298 296 293 292 288 287 284 282 282 280 282 287 285 283 288 287 292 294 294 293 293 293 289 286 283 283 281 278 277 276 279 286 289 292 295 296 295 295 287 282 291 293 293 294 292 293
301 301 301 301 300 300 300 300 300 301 301 301 300 302 302 305 301 299 298 298 295 288 294 293 295 296 294 291 293 291 291 289 291 286 286 288 291 293 295 296 298 297 294 291 291 288 286 284 285 284 285 287 283 283 287 286 285 285 289 291 291 289 288 287 284 282 283 281 279 277 282 280 288 292 293 294 295 295 289 277 278 289 293 293 293 292 292
302 302 302 301 300 300 300 300 300 300 301 301 301 301 301 306 305 302 299 297 292 291 293 294 293 290 288 289 289 292 293 292 292 294 290 291 291 290 291 293 291 296 296 288 289 286 285 284 282 282 282 288 289 287 279 285 282 283 283 285 284 285 285 286 281 282 282 282 280 282 282 287 291 290 293 293 296 291 279 275 282 291 292 293 294 293 293
301 302 302 301 301 301 300 300 300 300 301 301 301 303 302 304 304 303 299 297 295 288 294 296 296 294 294 297 296 295 294 293 293 288 288 287 288 293 294 293 294 287 293 288 289 285 284 284 288 286 282 285 288 282 287 282 282 286 286 283 283 283 284 284 285 282 281 282 279 279 283 285 289 292 293 294 288 279 277 286 292 293 291 293 293 293 294
301 302 302 302 302 301 300 300 300 300 300 301 300 299 303 304 304 303 298 294 295 293 293 293 294 292 295 293 291 291 292 293 292 290 288 284 292 293 291 287 291 291 289 291 284 287 283 282 284 287 283 284 285 288 284 285 288 285 285 287 283 283 281 280 281 283 283 282 279 277 274 284 291 291 290 291 282 283 288 291 292 293 292 292 292 292 293
301 301 302 302 302 301 300 300 300 300 301 301 300 300 301 303 304 304 304 299 295 289 290 295 296 294 295 294 295 294 293 290 291 289 291 291 294 291 282 282 287 289 285 286 282 283 284 282 284 283 287 285 286 286 281 283 284 290 288 286 285 288 281 281 282 285 278 279 276 276 283 285 292 290 283 287 288 291 292 291 289 292 292 292 292 292 293
301 301 302 302 302 301 301 300 300 300 301 301 300 302 298 301 303 303 303 302 295 291 293 296 298 297 297 298 298 297 296 294 296 296 292 290 294 291 290 291 290 289 290 291 287 286 287 286 288 284 282 283 288 283 285 281 279 285 289 288 279 288 284 285 281 285 282 280 283 287 290 290 292 290 289 291 292 293 293 292 291 290 291 293 291 291 292
301 301 302 302 302 301 301 300 300 300 300 301 300 300 299 300 299 303 303 297 299 299 299 298 298 297 298 298 299 299 299 300 300 299 297 292 289 292 290 290 290 294 293 293 287 286 286 286 283 287 283 285 284 282 284 284 281 284 282 289 286 290 290 290 287 285 289 289 290 291 290 290 289 291 292 292 292 292 292 292 290 292 292 292 290 292 292
301 301 301 302 301 300 300 300 300 300 300 301 300 300 300 302 301 300 299 297 293 290 294 296 294 289 292 291 294 299 299 298 298 299 302 299 289 288 293 294 295 294 292 294 292 288 286 286 285 287 281 285 287 282 280 280 282 285 283 283 286 288 289 287 283 287 283 278 288 288 288 289 290 290 291 292 292 292 292 291 291 290 291 292 292 292 292
301 301 301 301 301 301 301 301 300 300 300 300 300 302 304 301 300 300 295 289 290 289 285 288 289 293 294 297 298 298 297 298 300 300 298 299 296 289 287 293 296 291 291 293 295 292 289 285 286 285 281 287 287 280 286 281 282 287 281 284 285 283 289 284 285 285 282 282 287 288 289 289 290 290 289 290 291 292 292 292 292 292 293 292 292 293 292
301 301 301 301 301 300 300 301 300 300 300 300 301 301 299 298 301 301 299 298 297 292 286 286 290 297 298 296 294 294 298 298 297 297 297 296 296 296 294 296 296 298 296 296 294 289 287 286 286 285 282 283 290 283 282 285 283 287 284 283 287 287 289 281 285 282 284 286 287 287 287 288 289 290 291 291 291 291 291 292 292 292 291 292 292 292 292
301 301 301 301 301 300 301 301 301 300 300 300 300 303 301 301 303 299 296 296 291 288 289 286 291 293 295 294 295 298 298 297 298 297 296 297 296 297 297 296 294 294 293 292 293 289 288 286 285 283 286 285 289 287 287 285 285 283 283 286 289 287 283 286 283 280 280 280 282 286 281 281 285 288 290 290 291 291 291 291 291 292 291 291 291 292 294
301 301 301 301 301 301 301 301 301 301 300 300 301 303 303 301 301 301 301 299 294 287 286 287 289 291 297 294 295 296 297 297 297 295 296 296 295 295 294 294 294 292 291 289 286 286 286 284 283 287 286 289 285 284 288 288 287 284 284 286 288 284 285 284 281 280 279 284 286 288 287 287 288 289 290 291 292 292 291 291 292 292 292 292 292 291 292
301 301 301 301 301 301 301 301 302 301 301 300 301 302 302 302 304 303 302 302 300 295 291 291 292 291 286 290 297 296 296 297 297 296 295 295 295 295 294 294 293 292 292 289 288 287 285 285 287 285 285 291 286 283 284 280 281 279 283 287 288 289 289 287 286 286 286 288 288 289 288 286 288 290 291 292 293 292 292 292 292 293 293 293 292 292 291
301 301 301 301 301 301 301 301 302 300 299 300 300 299 294 296 302 302 302 302 301 298 290 286 284 286 295 294 293 294 295 296 295 295 295 293 293 294 293 293 292 293 292 288 288 284 286 286 287 290 291 294 285 284 280 281 280 282 286 287 288 289 289 289 290 287 285 290 291 291 290 290 291 292 293 293 293 293 291 291 292 292 292 293 291 291 292
301 301 301 301 301 301 301 301 301 302 301 301 299 291 289 287 295 301 301 302 304 298 292 290 287 290 289 294 294 291 293 294 294 293 293 294 294 294 295 294 293 293 287 288 287 287 287 284 285 286 292 291 288 283 281 280 279 281 285 287 288 288 288 289 291 291 291 291 292 292 291 291 292 291 291 292 292 292 292 292 292 293 292 292 292 292 291
301 301 301 301 301 301 301 300 301 301 303 298 294 292 293 293 297 300 301 302 302 297 291 286 286 286 286 289 294 294 293 293 294 294 294 295 292 294 293 292 290 294 290 286 287 286 285 286 285 286 286 289 287 283 283 281 279 280 286 287 288 288 289 289 291 291 292 293 291 289 288 289 290 288 288 291 291 292 292 291 292 292 292 292 292 292 292
300 300 300 301 301 302 301 301 301 301 301 301 303 301 300 298 300 301 302 301 299 293 294 287 283 285 284 288 293 294 294 294 293 292 290 294 291 292 289 293 293 292 295 288 285 283 287 286 287 284 287 291 285 283 281 280 282 286 287 288 288 288 289 290 291 292 292 292 291 286 285 287 289 291 292 292 292 291 292 291 292 292 291 290 290 290 290
299 300 300 301 302 302 301 300 300 299 300 297 296 299 302 300 301 301 302 300 298 297 292 287 284 283 284 292 287 292 294 288 288 291 286 293 293 291 288 289 290 286 289 285 287 286 287 286 284 285 287 285 286 283 279 282 286 286 287 288 288 289 290 290 291 290 291 290 291 291 291 291 292 292 292 291 291 292 292 292 291 289 288 288 288 288 288
299 299 300 301 301 302 302 299 298 301 298 298 299 301 302 299 299 300 300 300 291 288 286 287 287 283 283 284 283 287 294 291 287 290 286 290 294 289 290 285 288 283 286 292 286 286 284 284 288 283 281 286 283 279 280 284 285 286 286 287 288 289 290 289 288 290 290 291 291 291 291 291 290 289 289 290 290 290 290 289 289 288 286 286 286 286 287
299 299 300 301 301 302 300 300 298 298 297 295 295 301 299 300 301 303 304 303 297 289 286 287 286 284 285 280 281 286 294 289 292 291 290 288 288 292 290 286 281 286 291 287 283 286 283 288 285 280 285 281 279 281 283 286 285 286 286 287 288 289 289 289 289 290 290 291 291 291 291 291 290 289 290 290 290 289 289 288 287 287 286 285 285 286 286
299 300 300 300 302 300 297 296 299 300 296 298 299 301 300 299 302 303 302 299 301 301 290 286 285 285 285 283 286 288 290 283 289 287 289 286 285 287 286 285 282 285 284 283 283 281 286 291 284 280 280 278 281 286 287 287 287 286 287 289 290 290 290 290 290 290 289 290 290 289 290 289 289 289 289 288 288 288 287 286 286 285 284 284 285 285 285
300 300 300 299 299 293 293 294 297 299 301 299 301 299 299 297 292 293 292 290 295 295 291 290 285 286 290 286 283 290 288 285 290 284 285 288 284 284 287 284 284 284 278 281 283 289 287 284 281 280 280 285 287 287 288 288 288 289 290 290 290 291 291 291 290 289 287 287 287 288 288 288 288 288 287 287 287 287 286 287 287 286 286 285 285 285 285
299 300 302 300 295 291 290 296 304 300 300 300 300 293 290 292 288 286 287 289 289 286 290 287 285 289 287 285 287 293 289 285 284 286 282 288 283 280 285 279 284 283 280 280 282 289 280 281 282 281 280 284 283 286 288 289 289 290 289 291 291 292 292 291 291 289 288 287 287 288 288 286 286 286 288 287 288 288 287 287 286 286 286 286 286 286 285
300 296 292 292 291 294 300 303 301 299 299 293 295 290 284 289 285 283 290 285 285 287 288 283 289 289 289 286 285 285 293 288 283 282 284 285 291 281 285 282 284 281 276 276 280 287 280 276 279 279 278 283 284 287 289 289 288 289 290 290 292 292 292 292 291 292 291 291 291 290 290 289 289 288 288 288 287 286 287 287 287 287 287 286 285 285 284
297 295 294 291 295 298 298 300 301 298 292 288 288 288 285 282 287 288 285 282 282 285 290 288 290 288 290 290 289 284 295 293 292 291 286 282 289 287 282 278 285 279 277 276 283 284 282 279 278 277 279 283 285 287 288 288 288 288 290 290 291 292 292 292 292 292 291 290 290 289 289 290 289 289 289 289 288 287 287 286 286 287 286 286 285 285 285
297 296 297 299 299 299 299 297 295 290 289 289 284 280 284 284 286 285 285 280 282 286 287 287 285 285 286 288 288 289 288 294 290 287 285 281 286 282 280 282 283 277 274 281 285 283 281 276 276 277 282 284 287 287 288 287 287 288 288 290 292 292 292 292 291 291 291 290 289 289 290 290 289 289 289 289 288 288 287 287 286 287 286 286 286 286 285
299 300 300 297 296 293 293 287 290 289 281 281 280 278 283 280 282 282 283 287 289 286 288 293 291 292 293 293 289 292 288 293 287 286 284 281 287 285 281 280 279 274 279 285 282 279 276 275 275 279 284 285 286 287 287 287 287 288 289 291 292 293 292 291 291 290 290 290 290 289 290 290 289 289 290 290 290 289 288 288 287 287 287 286 286 286 285
299 300 294 293 289 289 289 278 289 285 282 283 280 275 279 279 282 283 281 284 287 286 289 286 287 286 283 289 287 287 288 289 288 287 285 286 283 280 279 276 276 283 287 281 280 276 277 279 281 283 285 286 288 287 286 286 287 288 289 291 292 292 292 291 291 290 289 290 290 291 291 290 289 289 289 289 289 288 288 288 288 287 287 287 286 285 285
292 289 289 287 284 287 284 276 288 283 277 280 283 281 282 280 283 285 284 287 288 286 290 290 289 288 285 289 289 288 287 284 289 282 280 283 279 281 278 277 282 283 279 276 277 278 278 278 283 284 285 285 286 286 286 286 287 286 288 290 291 292 291 290 290 290 290 290 289 290 289 289 289 288 288 287 288 289 288 287 288 287 287 286 286 286 287
289 287 286 281 277 283 282 279 281 279 284 285 284 285 284 286 287 287 291 292 289 289 288 289 289 289 285 288 284 283 286 286 283 283 284 283 278 276 282 285 284 277 277 277 274 273 276 280 282 283 285 285 284 284 285 286 287 289 290 289 289 291 291 290 290 290 290 290 290 290 289 290 288 287 287 288 288 288 288 289 288 287 287 286 286 286 287
289 289 288 286 280 284 286 280 281 284 287 288 290 289 289 289 290 290 292 292 290 290 290 291 289 289 285 285 286 286 286 286 281 284 284 278 277 281 285 279 274 276 272 272 273 275 277 281 284 285 285 284 284 285 285 286 288 289 289 290 290 291 291 290 290 290 290 290 290 290 290 289 289 288 288 287 287 288 288 288 288 288 287 286 286 286 287
284 288 287 279 278 283 281 284 288 289 290 290 290 291 291 292 290 288 291 291 291 291 289 288 285 287 285 289 287 282 284 285 281 282 284 281 283 279 277 276 275 277 277 275 276 280 281 284 284 285 285 285 285 284 285 286 288 288 289 290 290 290 291 290 290 290 290 290 290 290 289 290 289 288 287 287 287 288 288 288 288 288 288 287 286 286 286
288 286 283 283 285 285 285 289 288 286 288 290 291 290 290 289 288 289 291 292 290 289 290 288 286 285 282 285 283 282 280 284 278 279 283 280 276 273 273 271 273 272 278 280 280 283 284 285 286 286 287 286 286 285 286 287 288 288 289 290 290 291 291 290 291 291 290 290 290 290 290 290 291 290 289 288 287 287 289 289 288 288 288 287 287 286 285
285 284 286 284 283 285 288 289 287 285 287 288 289 288 289 288 288 290 292 290 290 290 289 288 288 284 284 283 279 281 280 283 281 282 279 276 277 278 276 272 275 275 278 282 283 284 286 286 286 286 286 287 286 287 286 288 287 288 290 291 291 291 291 291 291 291 290 291 291 291 291 291 290 289 289 287 288 288 288 288 288 288 288 288 287 287 286
288 286 285 289 284 284 285 281 282 283 284 286 287 287 288 287 288 289 293 291 291 288 286 283 284 283 281 280 279 275 278 284 280 278 278 277 280 278 276 274 278 281 283 285 286 286 287 287 287 286 286 287 288 286 288 288 288 289 290 291 292 292 292 291 291 291 291 291 291 289 290 291 291 291 291 289 289 288 288 288 288 289 289 288 288 287 287
284 282 283 286 289 289 288 288 288 287 287 288 288 289 289 287 289 290 293 290 288 284 283 285 284 281 279 276 279 282 284 281 278 279 277 280 282 278 278 280 282 284 285 285 286 287 287 287 287 286 286 287 287 288 289 289 289 290 290 291 292 291 292 292 292 291 291 291 291 291 291 292 292 292 291 290 289 289 288 288 288 289 289 289 288 288 288
Wind_Speed
29 28 28 28 28 29 28 29 28 27 26 14 11 10 6 6 8 8 10 9 8 7 8 9 7 10 10 12 15 16 12 9 9 12 10 10 7 8 8 7 6 7 8 6 7 7 8 8 9 7 7 4 13 7 2 6 3 1 4 9 5 4 1 5 10 10 12 13 13 16 10 5 8 9 9 10 10 8 9 7 6 7 7 7 4 5 2
28 28 28 28 29 29 29 29 28 26 19 11 10 8 7 8 7 4 7 9 8 8 7 7 7 9 12 14 14 12 12 9 10 12 11 8 7 8 7 6 7 10 6 7 8 6 5 4 8 7 8 3 3 11 4 3 2 3 3 2 5 3 2 7 7 7 8 9 9 11 11 9 5 5 5 8 10 11 9 9 6 7 7 8 7 8 2
29 28 28 28 29 30 30 30 30 27 20 12 7 6 7 9 7 9 5 8 6 9 8 9 7 10 11 11 14 13 11 6 10 11 10 9 9 6 6 7 8 7 6 10 7 7 8 7 7 10 9 2 3 8 2 7 5 9 8 7 3 2 4 4 5 5 6 4 3 2 3 5 4 5 7 5 8 11 8 3 4 6 5 7 6 5 5
28 29 28 28 29 30 30 31 30 29 26 15 9 5 6 4 4 3 8 7 7 8 9 11 9 7 9 7 8 8 9 10 9 4 11 11 8 7 8 7 6 7 8 8 7 8 8 9 5 7 7 4 6 7 4 2 7 8 8 4 2 4 5 7 7 8 8 9 10 9 8 7 7 8 11 11 9 10 6 4 4 6 5 7 7 8 2
29 29 28 28 29 30 30 31 31 31 28 25 7 6 5 6 6 4 4 8 5 8 8 9 9 7 7 6 6 10 11 10 9 7 5 7 8 7 8 9 8 5 6 7 9 9 9 10 11 9 10 7 4 9 1 4 10 7 3 1 2 3 4 8 11 13 14 15 16 15 15 14 13 13 13 13 13 9 8 5 7 5 6 9 5 7 9
29 29 29 28 29 30 30 30 32 32 32 30 9 7 3 4 4 4 7 4 4 5 3 11 7 8 6 7 7 6 7 6 7 3 4 10 6 4 7 9 9 10 10 7 6 7 9 9 7 11 8 9 7 4 7 5 8 3 3 3 5 5 5 9 11 14 15 15 15 15 14 14 14 15 14 14 14 14 10 4 9 11 7 11 8 9 12
28 29 29 28 28 29 30 30 31 33 33 23 6 9 7 7 6 6 12 5 6 4 8 8 9 10 6 5 5 6 8 9 7 7 4 4 8 7 4 7 9 11 10 9 8 4 4 3 9 8 9 8 7 7 4 4 8 4 3 6 4 4 5 9 10 13 13 14 14 13 14 12 14 14 14 14 14 13 13 14 13 14 13 13 13 12 10
27 28 29 28 28 28 29 30 30 32 34 19 9 11 9 8 8 7 11 8 8 4 6 6 6 8 1 1 6 4 4 5 8 7 5 3 8 8 8 10 10 11 13 7 3 7 4 6 4 7 9 6 4 6 5 4 5 7 4 3 4 3 1 3 6 8 10 11 13 13 14 14 15 16 15 14 13 15 14 13 11 11 11 12 13 13 10
25 28 28 28 27 28 28 29 29 30 30 9 11 9 10 8 7 6 8 8 6 6 8 6 5 4 6 3 7 5 7 4 3 5 3 1 4 7 8 10 12 10 8 6 8 8 7 6 7 7 7 4 4 3 3 4 6 6 6 5 2 4 4 5 6 6 7 10 12 12 13 14 15 15 12 13 13 11 10 7 8 8 8 9 10 10 6
24 26 27 26 26 26 27 28 29 28 25 9 9 10 10 9 8 9 7 6 6 7 7 3 6 2 6 6 6 5 5 8 5 5 9 6 5 4 9 10 8 8 6 9 8 8 5 6 6 8 8 7 8 5 7 8 7 4 6 4 7 4 4 5 4 8 9 10 10 12 11 11 12 9 8 14 15 15 15 14 12 10 9 7 8 8 9
24 25 27 26 25 25 26 27 26 27 18 12 10 9 11 11 10 10 8 7 6 3 6 7 8 6 9 7 7 10 6 7 7 6 2 10 9 7 7 11 9 3 8 8 9 8 8 7 8 7 8 10 10 9 9 11 10 8 6 4 5 6 7 7 6 7 8 10 11 10 6 10 8 4 4 7 9 7 10 9 9 10 9 9 8 10 10
24 24 25 26 25 24 25 25 26 25 20 12 11 7 9 10 9 7 6 6 5 7 7 7 6 6 7 9 8 6 8 7 7 9 9 7 9 7 7 8 11 4 9 10 9 9 10 9 11 11 11 12 12 13 14 13 11 9 10 11 8 7 6 6 7 7 8 8 8 8 10 9 4 7 8 5 9 9 8 10 10 10 12 12 12 10 11
24 24 24 26 25 25 24 25 26 25 24 15 11 8 10 11 8 8 6 5 5 8 7 7 9 9 8 7 9 7 4 7 7 7 6 7 6 7 3 6 7 9 11 11 11 10 8 8 9 9 12 11 12 14 15 15 14 14 12 11 9 5 6 4 5 6 6 8 7 9 8 5 7 8 7 3 3 5 6 10 9 8 10 13 13 10 8
22 24 24 25 25 24 23 24 25 25 26 20 11 8 10 11 10 9 6 6 7 9 9 6 9 10 10 8 6 8 8 3 3 2 4 7 6 7 5 6 7 8 9 9 9 7 5 5 5 5 8 8 9 11 12 15 15 15 15 14 11 10 6 4 6 4 8 6 9 11 12 14 11 7 8 8 7 6 5 3 3 8 9 9 10 10 9
22 23 23 24 25 24 23 24 24 24 24 25 12 6 9 10 9 7 7 5 6 3 10 6 9 10 10 7 6 6 2 3 3 2 2 1 5 5 4 3 5 8 8 8 5 4 3 3 4 4 5 6 6 7 7 9 9 13 13 12 12 10 8 4 7 5 6 9 9 8 7 9 1 11 7 8 7 7 4 4 5 6 5 9 11 13 13
21 23 22 24 24 24 23 23 24 24 23 25 13 9 8 10 8 7 6 6 6 4 7 8 10 9 8 9 7 7 7 3 4 5 3 4 3 7 3 4 5 6 7 6 5 3 2 3 5 5 5 5 7 6 5 6 6 4 3 6 10 8 9 6 6 7 5 7 8 7 7 2 6 6 8 8 7 6 6 1 3 9 11 10 7 9 9
21 22 22 23 24 23 23 22 23 23 23 23 13 10 7 10 9 9 9 6 5 6 7 10 9 9 6 7 9 8 7 4 6 4 4 3 4 8 9 8 5 6 6 4 5 4 3 5 6 6 7 7 7 6 8 7 7 1 5 4 5 7 5 5 8 7 8 8 8 9 4 1 7 7 7 9 7 6 4 3 2 9 10 9 8 7 7
21 22 22 22 24 23 22 21 23 23 23 24 14 10 7 9 9 10 6 6 5 4 8 9 10 7 7 7 6 5 4 5 7 6 4 4 11 9 8 6 9 4 1 4 3 3 4 3 5 4 6 5 6 5 4 6 5 4 3 3 3 4 6 6 9 8 9 9 9 7 2 3 8 8 9 5 5 5 2 5 3 6 9 8 7 8 10
22 22 22 22 21 22 23 21 22 23 21 22 16 10 7 8 10 10 7 7 8 5 9 10 10 9 7 7 6 8 8 7 7 4 6 3 6 10 10 6 4 4 4 4 5 3 3 4 4 6 5 5 3 4 9 5 3 3 5 5 4 4 3 5 6 9 9 7 8 9 2 3 7 7 7 6 2 3 2 5 7 5 8 7 7 8 9
22 23 22 22 22 22 23 21 21 23 23 20 13 8 7 9 8 8 8 8 7 4 9 10 9 9 8 9 7 7 6 5 6 5 7 6 8 9 5 0 5 6 3 5 3 3 3 4 3 4 5 6 3 5 5 6 5 7 4 4 5 3 3 6 6 5 5 5 7 7 8 1 5 8 3 9 2 4 2 7 9 8 9 10 10 10 9
22 23 22 22 23 23 23 21 20 20 22 22 17 8 6 8 8 8 7 6 7 4 6 8 7 8 6 7 5 9 8 7 7 6 6 6 8 6 4 3 5 4 5 5 5 4 2 5 5 3 4 4 3 1 3 3 5 5 4 5 5 4 4 4 4 3 5 5 5 2 1 3 6 5 5 4 5 6 6 6 8 8 8 9 9 8 9
21 22 22 23 23 24 22 20 18 17 20 21 21 11 6 8 8 8 10 6 4 3 3 3 2 5 6 6 7 6 8 7 7 5 7 5 5 5 3 7 7 6 5 7 3 5 5 4 4 3 5 6 4 4 5 3 4 2 5 3 3 4 5 2 3 1 0 3 5 4 5 6 4 9 7 4 5 5 8 9 9 10 9 10 10 10 11
21 21 22 23 23 24 22 20 16 16 18 17 13 7 9 9 10 14 13 2 1 3 6 3 1 1 5 8 6 4 5 3 4 5 6 5 3 4 5 6 6 6 5 6 5 5 5 5 4 5 5 5 5 6 7 5 5 3 3 5 4 9 7 8 4 5 6 9 7 6 8 7 9 6 6 7 9 9 8 10 10 10 10 10 11 12 12
21 21 21 22 22 23 22 19 15 15 17 16 12 8 7 8 9 10 9 3 0 3 1 3 2 3 5 7 4 5 6 5 7 2 2 3 4 2 3 5 7 2 2 4 2 6 4 3 6 5 4 5 6 4 4 4 4 6 6 5 2 12 10 7 5 7 6 4 5 9 11 11 11 10 10 9 8 9 10 10 9 10 11 12 12 13 13
21 22 22 21 22 22 21 18 15 14 15 15 13 10 8 4 8 9 8 5 4 4 2 4 4 4 4 1 4 7 6 3 5 4 3 4 3 4 6 7 4 5 6 6 5 6 3 4 3 2 3 3 4 4 4 3 3 7 4 2 6 2 7 7 7 8 6 7 8 9 11 12 10 8 9 10 10 11 12 10 11 13 13 13 14 15 15
21 21 21 21 22 23 21 18 15 13 13 15 13 8 6 7 8 9 7 6 6 3 6 1 4 4 6 2 6 2 2 3 6 6 0 0 1 2 3 2 3 2 4 4 5 4 4 3 2 3 3 1 4 4 5 7 8 8 6 6 6 9 9 5 8 7 8 9 7 9 14 11 8 8 8 9 11 12 14 15 16 15 15 16 15 14 15
21 21 21 20 21 21 20 18 15 12 13 13 9 7 4 5 6 7 9 8 9 3 1 4 3 6 4 4 0 5 2 4 2 4 4 3 4 3 2 4 4 4 4 4 2 2 2 3 3 5 4 5 5 5 5 6 5 5 6 7 8 6 5 7 5 5 5 6 9 11 9 8 10 12 14 13 14 14 14 13 13 13 13 12 13 13 12
19 20 21 20 21 20 18 17 15 13 12 13 9 7 5 5 5 6 6 7 6 5 7 3 3 4 4 4 4 7 4 5 6 6 5 2 1 0 3 4 3 3 2 3 3 1 2 3 2 1 2 4 3 4 4 6 5 6 8 2 4 4 6 4 4 4 6 10 12 11 11 12 11 12 12 13 13 13 14 13 11 11 11 12 13 13 14
18 19 20 21 20 19 18 17 16 13 12 10 7 6 4 2 5 6 6 5 5 6 5 5 1 4 1 5 3 3 3 1 0 0 3 5 4 3 4 4 5 3 4 3 3 3 4 4 1 3 2 4 1 4 2 5 4 5 4 5 1 4 3 5 8 9 9 10 10 11 10 12 13 14 14 13 11 11 12 12 12 12 12 12 12 13 14
19 20 20 20 19 19 17 16 15 11 10 7 6 5 4 2 4 6 7 6 5 4 5 4 2 2 2 0 5 4 4 3 3 2 4 2 4 4 6 3 5 4 5 3 3 5 2 3 2 2 7 3 2 3 4 5 4 3 11 7 2 6 7 7 7 9 8 11 12 11 11 12 12 12 12 11 11 11 11 13 13 14 13 13 14 14 13
19 18 19 19 19 17 16 15 14 14 11 6 7 4 3 1 4 6 8 8 7 5 5 3 7 2 0 3 5 4 8 7 8 4 5 4 3 5 5 3 3 2 3 3 3 3 2 5 2 1 5 6 3 3 4 4 4 7 5 8 6 7 7 9 7 8 9 10 10 10 11 9 8 10 10 11 12 12 12 12 13 13 14 15 14 14 13
19 18 19 18 18 17 15 14 13 14 8 5 6 4 4 3 5 6 8 8 7 6 5 5 3 1 1 2 0 1 5 4 6 5 4 2 6 4 5 2 3 2 2 4 3 4 4 3 3 4 6 5 0 3 5 5 6 6 7 9 7 7 8 9 9 9 8 8 10 11 10 10 10 11 12 13 13 13 13 14 14 14 13 12 11 12 11
19 19 19 18 18 17 15 14 13 8 6 5 4 6 6 5 6 7 7 8 5 4 4 3 3 1 2 0 2 3 3 5 4 6 3 5 5 4 4 4 5 5 5 2 2 4 1 3 2 5 1 5 3 3 4 6 6 6 7 7 8 8 8 8 9 8 8 8 9 10 11 12 13 13 13 13 13 13 13 13 12 11 11 12 12 12 11
20 20 20 18 17 16 15 12 12 13 9 4 4 3 3 3 6 3 5 5 5 5 2 3 2 4 2 3 5 5 4 5 5 3 3 4 1 4 3 5 1 3 4 3 1 3 3 4 4 4 1 4 2 3 4 5 5 5 7 8 8 9 9 9 8 8 8 9 8 8 10 10 11 11 11 11 11 11 10 9 10 11 11 11 11 11 11
21 21 20 19 17 16 16 11 7 6 5 4 4 3 4 5 7 7 5 5 4 2 2 2 2 4 3 2 0 2 5 2 3 2 4 3 3 5 4 5 1 2 2 0 5 4 4 3 3 2 4 4 3 3 4 7 4 6 7 8 7 8 8 8 8 8 9 8 8 9 10 11 11 10 9 9 9 9 11 11 10 10 10 10 10 11 11
20 21 20 19 20 14 8 7 6 6 3 3 5 5 4 7 6 6 6 5 4 3 3 3 3 4 4 4 3 2 4 5 2 5 4 2 4 5 5 2 5 1 3 2 5 5 4 5 0 5 3 4 5 2 1 3 3 6 7 8 5 7 7 9 9 10 10 9 10 9 9 9 9 8 8 8 9 10 10 10 10 10 10 10 10 11 10
21 21 21 18 10 6 6 5 2 3 4 4 8 10 8 5 5 4 5 5 5 4 3 3 4 2 2 4 2 2 4 5 2 5 3 3 4 3 4 3 5 2 2 4 4 4 2 4 2 4 5 6 2 6 5 2 3 5 6 7 7 7 7 7 8 9 10 11 11 9 9 10 9 7 8 8 8 8 9 10 10 10 10 11 11 10 10
22 24 10 6 6 5 3 2 3 3 3 7 8 6 4 3 2 2 2 4 4 4 3 5 4 3 4 3 4 3 3 3 4 4 4 1 3 3 1 3 2 1 5 4 3 3 2 2 3 5 5 5 4 6 3 1 5 4 6 7 7 7 7 6 7 8 9 10 10 11 11 9 8 8 7 7 7 7 7 8 8 8 8 9 9 10 10
17 9 7 4 5 3 3 3 5 5 3 3 3 2 3 3 2 2 2 2 3 3 2 3 4 2 2 4 4 2 2 4 5 3 5 2 2 4 1 4 1 2 3 5 0 3 5 4 5 4 7 5 5 3 3 3 3 4 6 6 7 6 5 6 6 6 7 8 8 8 7 7 7 6 6 6 5 6 7 7 8 9 8 9 9 10 10
4 6 4 3 2 5 6 6 6 1 4 4 3 2 2 2 2 3 0 3 2 2 1 4 2 4 2 4 5 4 3 3 6 5 4 6 0 4 2 3 2 2 4 6 0 3 4 5 3 4 3 3 3 3 3 4 5 5 6 7 7 5 5 5 5 5 7 6 5 4 5 4 2 3 5 5 6 7 7 7 8 8 9 9 9 9 10
6 5 4 4 7 5 6 7 4 4 3 2 2 1 1 3 2 1 1 3 3 1 3 4 2 4 3 2 4 5 3 5 1 3 3 6 2 2 3 4 2 4 3 4 1 2 3 4 3 5 0 3 2 4 3 3 5 6 6 7 6 5 5 6 6 6 6 5 4 3 2 2 3 5 6 7 7 6 6 6 5 7 9 9 9 9 7
5 6 6 8 8 8 8 6 2 2 1 1 1 3 2 3 2 2 2 3 1 1 0 1 2 2 3 1 4 5 2 4 2 3 3 5 0 2 3 3 2 4 4 3 3 4 4 5 4 5 3 3 5 3 5 5 6 7 8 7 5 4 5 5 7 5 4 3 2 2 2 5 6 6 6 6 6 5 5 5 5 6 5 5 5 6 6
16 12 8 7 5 3 1 3 3 1 1 2 1 3 2 3 2 3 1 2 1 2 1 3 3 1 2 2 5 2 3 1 3 1 2 4 1 2 4 3 2 5 4 3 4 4 5 5 5 5 3 8 5 2 4 4 6 7 7 5 4 4 5 6 5 4 4 2 2 3 3 5 6 5 4 4 4 4 4 2 1 2 2 3 4 4 3
10 7 4 3 3 2 1 3 1 1 2 2 3 4 5 5 3 4 3 1 1 3 1 2 2 4 3 3 2 2 3 3 2 2 4 3 2 3 2 4 5 4 4 5 4 7 6 4 5 4 6 4 5 6 3 4 6 6 5 4 4 3 4 3 2 2 4 3 4 4 5 5 5 4 3 2 2 3 1 1 1 1 3 4 5 2 2
6 3 1 2 1 1 1 1 2 2 4 4 4 5 4 5 3 3 1 4 2 4 5 5 5 5 5 4 3 4 1 3 4 2 3 2 4 3 4 5 3 3 4 6 5 5 5 6 4 5 1 8 7 5 4 2 1 2 3 5 4 3 4 2 2 2 4 4 5 4 4 3 2 1 0 0 3 3 4 4 3 3 4 4 5 5 4
4 3 1 3 3 2 3 4 2 4 4 4 4 6 7 6 5 5 3 2 4 4 5 5 5 5 6 3 3 3 1 3 4 3 3 3 4 5 4 4 3 6 5 5 6 7 6 7 2 5 7 7 4 2 1 1 5 5 5 5 3 2 2 1 1 3 4 4 4 4 3 2 1 1 0 1 1 2 3 4 4 4 4 4 5 6 6
4 3 3 3 5 3 2 5 5 4 4 5 5 6 6 6 4 4 4 4 5 3 4 3 4 5 5 4 4 3 4 2 5 3 3 5 5 3 2 4 5 4 6 7 6 6 5 5 4 5 6 5 3 3 1 3 4 5 4 4 1 1 1 1 3 4 5 5 4 3 2 1 0 1 1 1 1 1 3 3 4 4 4 5 5 6 6
4 3 2 3 3 3 6 6 7 8 8 9 8 7 6 5 5 5 3 3 4 3 4 3 4 3 4 2 3 6 5 3 5 5 4 4 3 4 3 4 5 5 5 6 7 5 6 3 6 5 6 3 4 3 1 2 5 5 4 4 2 1 2 3 4 5 6 6 5 4 2 2 2 2 1 1 2 2 3 3 3 3 4 5 6 6 6
2 3 3 3 2 3 5 6 9 10 8 8 7 6 6 6 6 5 4 3 4 5 4 4 3 2 5 2 4 4 6 3 5 4 3 4 4 4 3 5 5 7 5 5 6 6 5 2 6 6 5 4 4 3 1 5 5 6 4 4 2 2 3 4 6 6 7 6 5 4 3 2 3 2 2 1 1 2 2 2 3 3 4 5 5 5 5
2 3 4 5 6 8 9 10 10 10 8 7 6 6 4 6 6 6 3 4 3 4 3 4 2 3 4 2 4 3 5 4 5 3 5 7 6 5 6 9 7 6 6 5 5 4 3 3 2 3 2 6 5 4 2 4 5 5 4 3 3 3 4 5 6 7 8 6 5 4 3 2 3 2 1 1 1 1 1 1 1 2 3 3 3 4 4
2 3 4 4 8 8 7 8 8 9 8 7 6 5 4 5 5 5 2 2 3 3 3 5 3 4 3 3 3 4 3 1 5 7 7 7 5 6 8 9 8 6 7 6 7 5 4 3 3 2 5 4 3 5 4 4 7 6 3 4 3 4 4 6 6 7 8 7 6 4 5 4 4 5 3 2 3 3 4 4 2 1 1 2 3 3 4
3 5 5 5 8 10 10 9 9 10 11 10 9 8 6 7 5 5 2 0 4 6 7 4 4 5 3 5 5 4 2 3 6 6 8 6 4 7 7 8 8 7 6 6 5 3 3 3 1 3 1 3 1 6 5 5 7 6 5 4 4 5 6 6 7 8 8 7 7 7 6 6 5 6 3 2 4 4 5 4 3 2 1 2 2 2 3
Wind_Direction
1 358 356 354 351 349 347 346 344 344 348 355 345 320 286 236 256 102 168 148 200 209 248 245 234 235 250 260 251 257 253 272 272 270 260 257 215 265 259 250 268 251 269 278 270 264 260 271 275 288 257 67 82 83 342 54 123 257 296 293 42 20 259 264 258 274 273 275 273 278 278 238 261 260 267 266 262 267 275 274 279 273 282 291 289 258 157
1 359 357 354 352 349 347 345 344 341 355 343 317 305 292 304 294 206 159 167 198 237 237 241 241 245 249 251 269 266 271 263 252 250 256 265 263 245 247 284 256 285 292 281 272 275 297 267 281 267 284 138 71 105 116 157 283 257 28 346 46 292 183 234 276 285 283 271 253 240 245 216 210 269 286 292 292 279 268 280 301 277 272 282 283 273 266
2 0 358 355 353 351 348 346 342 340 340 349 318 305 315 301 278 274 203 179 206 229 231 244 253 258 265 264 242 254 250 250 268 289 301 296 285 315 290 289 303 278 276 277 278 278 268 282 257 278 271 110 200 112 271 89 302 44 55 33 18 283 292 283 263 267 270 264 255 281 3 338 319 307 299 285 294 284 279 265 283 276 275 267 265 271 63
2 1 359 357 354 352 350 347 344 339 336 345 338 293 292 273 303 240 220 196 198 233 256 272 289 298 287 298 308 286 264 253 238 293 274 287 284 277 314 295 290 301 301 289 288 281 268 264 276 261 263 209 186 169 187 98 78 62 47 37 294 280 282 275 272 273 272 286 305 323 323 302 283 286 290 287 292 311 305 295 282 276 309 291 275 291 250
3 2 359 358 356 354 352 349 345 342 333 338 322 288 233 293 275 349 339 342 271 262 222 233 238 250 266 271 260 248 250 263 251 159 277 253 268 292 263 272 275 267 271 282 285 280 280 273 272 254 258 263 330 105 48 164 108 76 22 306 299 266 271 260 265 263 267 280 286 294 295 285 280 275 265 267 268 256 261 253 270 294 296 269 280 304 327
4 3 1 359 357 356 354 352 348 344 338 332 323 294 353 323 7 360 33 303 316 317 17 356 329 321 313 279 296 294 291 285 281 231 203 316 301 296 283 268 255 263 263 272 267 276 281 283 278 292 273 272 117 210 121 292 107 132 251 210 232 251 253 251 255 261 268 272 277 283 287 287 288 288 293 296 297 298 280 271 277 285 270 277 295 304 299
5 3 2 1 359 357 356 354 351 346 339 327 7 8 22 6 332 1 8 321 300 336 345 316 313 310 314 307 328 291 275 271 265 257 294 336 308 267 275 276 289 285 276 261 265 311 297 305 347 342 310 278 304 282 187 203 138 138 271 267 197 236 250 268 270 278 277 276 277 279 280 284 280 272 268 269 277 279 276 270 267 265 271 284 292 292 288
6 5 3 3 0 359 358 357 355 349 341 329 39 35 3 10 353 340 336 321 288 338 319 307 301 282 137 329 263 317 310 296 284 272 273 316 311 315 314 312 318 300 278 280 302 58 24 12 329 349 346 342 270 290 299 295 263 282 261 270 109 188 253 358 305 291 282 283 284 287 288 286 281 285 288 289 279 276 285 287 275 280 278 277 280 282 277
5 5 5 4 3 1 359 358 358 353 343 12 13 36 10 341 338 342 311 324 329 331 274 259 289 285 3 321 354 283 265 290 293 281 239 190 319 353 321 333 322 317 320 350 34 54 18 350 6 322 350 298 352 345 331 335 306 283 271 247 173 135 278 307 292 288 278 277 277 276 278 277 282 287 304 318 312 288 271 271 285 275 284 298 302 291 286
4 5 5 4 4 2 360 360 359 358 344 7 359 18 359 347 344 323 326 307 315 290 348 298 250 33 350 343 327 313 1 328 350 3 1 335 332 20 351 337 329 307 347 36 9 2 338 331 326 326 313 304 292 283 279 282 280 275 270 263 265 229 258 264 277 279 282 294 297 297 313 309 286 268 268 265 264 272 277 269 271 273 283 268 261 267 288
5 5 5 5 4 3 1 360 359 0 359 8 347 5 5 360 336 324 321 312 295 338 315 49 27 38 331 342 348 346 329 309 355 335 3 345 346 22 27 338 311 332 38 355 348 333 312 302 305 303 288 282 278 273 274 274 274 271 268 260 253 275 265 263 262 266 282 295 300 309 295 264 259 316 14 346 310 328 335 326 323 314 293 281 281 288 296
7 5 5 5 4 3 2 0 358 359 2 347 325 360 8 345 321 322 330 332 334 31 28 34 20 19 8 9 339 348 355 3 342 22 342 338 331 321 1 2 4 4 6 323 328 324 306 292 263 251 259 270 273 276 273 267 262 247 239 238 233 224 249 270 273 271 274 284 282 271 258 258 291 283 288 343 337 295 288 304 309 309 323 331 319 305 299
8 6 5 4 4 3 2 360 358 356 358 351 337 5 8 354 336 344 339 329 356 37 349 30 16 19 356 6 358 344 355 350 335 15 308 290 343 332 355 13 337 348 341 328 329 308 309 306 303 285 277 266 256 251 246 247 250 255 266 266 277 265 252 255 263 271 275 267 259 261 255 297 293 297 326 290 238 290 291 285 287 324 351 354 331 310 303
8 7 6 4 3 3 1 359 356 355 355 353 336 2 13 5 357 352 359 341 339 20 16 32 11 6 349 343 348 326 322 276 329 297 297 36 329 306 314 311 343 345 317 335 307 304 301 291 275 283 258 252 253 260 258 261 255 249 245 247 247 260 265 254 269 249 265 266 270 269 291 291 289 286 49 24 30 17 354 325 331 349 318 306 316 323 335
7 7 6 4 3 2 360 358 355 354 355 351 329 358 24 8 357 343 331 316 334 354 44 17 358 341 332 323 16 326 8 2 295 280 315 345 271 284 314 310 326 326 318 293 299 270 256 265 278 269 266 257 257 259 251 248 247 245 244 242 238 224 232 226 240 243 242 265 273 271 267 264 327 56 72 35 30 25 21 352 311 294 310 45 41 20 3
7 7 6 4 3 1 359 357 353 352 354 352 341 347 43 7 352 336 334 324 316 334 36 14 350 342 337 338 338 343 6 327 323 321 258 211 1 331 250 55 6 317 286 283 249 288 290 293 266 262 269 269 259 269 268 272 253 233 322 261 239 225 228 236 239 258 261 259 256 261 267 319 73 72 52 49 24 43 305 331 273 34 41 35 21 18 4
4 4 3 4 3 360 359 356 350 351 350 356 342 332 31 16 4 346 325 316 310 57 18 16 357 348 339 9 360 22 353 335 333 328 347 58 215 260 20 22 321 260 301 295 295 259 236 228 253 266 275 264 264 270 280 251 252 93 39 286 271 262 251 248 242 242 245 253 255 254 258 23 16 6 13 45 356 333 276 262 225 8 18 11 359 347 340
360 0 360 0 1 359 357 355 350 347 349 351 347 321 31 13 16 337 328 310 317 75 40 21 360 10 3 347 330 324 299 350 336 319 269 5 26 15 348 344 335 130 301 274 270 266 272 278 264 263 269 293 317 342 281 353 317 261 182 169 223 263 255 241 250 254 247 240 253 260 218 79 14 6 0 1 7 7 283 258 20 342 0 343 358 335 340
358 357 358 358 357 357 355 352 349 343 348 352 346 334 42 15 15 355 343 339 3 29 34 32 346 27 355 331 339 357 6 0 359 342 334 10 14 337 301 323 343 318 323 294 317 298 283 269 266 272 276 268 278 311 340 302 268 340 325 277 217 214 270 278 268 249 246 254 261 254 289 65 288 347 332 308 311 275 298 28 261 303 326 336 336 326 319
356 355 355 355 355 355 353 350 349 339 340 348 349 323 312 32 12 2 355 2 336 21 39 22 6 16 17 27 13 19 354 360 1 357 360 357 356 340 345 224 40 323 308 4 290 7 321 299 319 351 293 303 344 355 294 270 280 270 277 279 286 296 257 258 251 266 277 266 269 266 253 63 288 1 19 44 354 36 340 315 336 320 334 332 335 330 314
353 352 351 352 352 352 352 349 349 338 336 340 346 327 309 59 359 354 330 337 327 344 48 25 19 37 14 40 39 3 13 20 2 357 352 337 331 322 32 4 353 346 10 355 335 347 354 318 334 345 328 312 270 210 295 325 312 294 303 289 301 341 294 283 282 333 284 260 254 264 25 255 265 318 314 20 359 337 334 323 308 331 317 310 305 294 304
350 349 349 350 351 351 349 348 347 339 335 338 340 324 343 28 348 352 309 276 301 6 355 11 343 59 42 43 39 6 11 42 28 4 344 336 334 19 19 6 14 9 19 340 331 341 355 344 306 314 327 322 326 277 316 290 276 63 43 331 291 16 311 2 284 54 288 297 309 329 235 254 342 37 19 4 318 308 307 312 306 309 309 310 304 329 343
348 347 347 348 350 350 349 347 345 339 331 336 339 330 339 352 8 330 316 305 239 238 276 169 16 194 202 106 77 48 39 45 9 27 22 343 349 33 23 19 14 352 356 14 357 325 319 321 330 358 334 295 328 328 314 280 289 283 280 154 238 46 24 5 327 300 329 320 302 307 311 341 6 325 299 301 309 323 310 304 310 308 325 338 325 321 311
347 346 346 348 349 349 348 346 346 337 326 331 333 319 326 325 359 341 331 357 346 315 194 316 329 25 354 8 350 257 137 95 47 8 119 360 336 16 47 24 333 328 20 354 355 317 334 328 312 333 313 316 360 291 291 289 301 5 354 317 125 58 18 340 303 308 314 291 334 322 316 323 327 333 334 333 321 316 329 328 329 329 325 320 319 314 311
345 345 344 346 348 348 347 345 345 333 322 324 329 300 280 340 9 341 342 346 336 321 342 114 58 358 34 329 238 43 50 291 222 140 41 275 304 331 339 359 346 334 339 327 313 301 283 296 307 268 287 334 359 304 17 330 265 47 315 316 313 39 45 322 293 293 277 296 312 332 358 3 343 323 319 317 324 324 323 323 328 322 313 309 305 301 292
343 343 343 343 347 348 346 343 343 327 316 324 323 317 349 13 5 355 355 351 314 298 278 3 75 230 214 37 31 340 341 332 35 334 323 165 271 21 337 303 299 155 276 309 312 303 319 296 295 304 296 12 47 310 299 13 320 309 282 293 312 329 334 299 340 314 305 298 295 4 340 320 309 321 328 323 327 333 329 322 314 312 311 307 302 303 306
343 342 342 343 344 346 345 342 340 324 315 321 319 312 7 23 13 12 11 350 333 261 338 45 50 20 15 106 29 270 76 334 59 336 325 356 354 165 229 322 327 328 334 323 307 295 288 285 297 296 340 316 12 308 298 281 290 306 301 291 329 315 311 357 343 302 303 332 342 339 324 321 322 320 320 324 326 317 311 309 306 308 306 307 307 304 299
341 341 343 342 342 345 343 340 335 327 327 328 309 298 314 16 27 19 29 354 349 346 314 324 70 51 337 17 323 287 56 317 41 333 343 347 229 122 318 289 288 293 316 320 301 238 275 283 288 42 269 288 314 296 328 318 284 256 249 332 42 313 360 359 327 327 311 313 310 320 316 308 307 308 309 307 309 308 309 315 322 325 321 320 314 311 309
339 341 341 341 340 342 340 336 340 334 329 311 290 295 271 24 6 52 24 348 318 313 301 301 232 213 320 20 322 319 101 264 342 316 5 302 303 299 276 259 272 280 241 234 268 281 277 273 340 295 350 76 9 284 300 276 283 288 358 132 339 72 242 299 344 339 310 318 326 319 310 302 309 310 311 312 319 323 325 329 321 316 316 312 311 313 311
335 338 339 339 338 338 337 332 336 339 328 305 292 295 266 140 10 25 7 334 321 306 302 324 311 93 252 347 17 300 295 259 137 327 279 271 308 300 275 345 325 355 330 308 315 289 329 319 292 265 106 108 289 297 278 280 279 301 68 60 37 312 348 342 341 331 317 313 311 317 312 307 310 317 322 327 336 343 327 319 316 314 313 317 314 311 309
332 332 335 337 334 334 330 326 332 329 313 274 277 290 317 101 64 10 360 338 324 312 297 296 277 96 230 117 250 17 303 356 3 346 313 311 292 260 291 356 271 249 275 264 232 263 306 271 282 254 174 161 205 272 284 291 286 279 69 36 16 7 343 334 326 312 309 317 324 324 322 322 328 324 320 329 326 323 319 317 318 318 323 320 314 315 313
328 327 328 330 329 326 325 322 328 328 306 347 5 2 1 354 343 332 330 317 307 289 285 300 311 337 249 156 143 183 301 355 303 310 234 235 303 345 319 274 282 289 321 325 331 328 283 334 295 293 283 89 173 285 283 273 275 273 21 360 359 350 350 326 328 324 326 340 336 327 323 324 329 326 320 323 321 322 318 318 322 330 334 320 321 315 322
322 321 322 322 325 323 320 318 317 318 318 350 50 76 72 5 314 296 328 320 294 258 256 289 307 358 263 104 217 163 1 294 238 244 243 150 302 16 284 236 245 253 124 211 251 274 279 247 261 267 155 127 237 250 258 263 272 329 353 342 337 347 330 322 317 330 335 343 340 324 319 320 322 320 317 317 317 320 326 328 334 333 328 327 322 324 332
314 315 314 317 317 321 319 315 308 296 273 239 236 192 78 24 302 277 311 279 270 296 300 295 311 283 295 131 259 101 311 323 327 326 322 126 81 288 319 325 294 289 143 242 117 268 251 257 256 291 203 218 216 264 263 279 304 334 327 322 339 332 327 326 332 338 339 331 328 315 311 314 316 314 315 322 328 337 341 344 346 344 341 337 337 337 335
309 308 309 312 316 312 308 303 295 263 289 278 82 50 2 5 313 302 290 290 311 285 260 217 207 289 307 237 327 105 283 270 293 4 302 329 63 308 343 289 123 243 110 256 272 257 279 279 352 266 264 338 299 269 261 273 322 340 325 322 329 329 326 331 332 334 329 330 320 322 326 331 331 337 339 335 342 353 351 345 352 351 347 344 343 343 340
306 306 305 308 308 302 283 241 235 260 264 5 345 41 46 299 268 258 255 281 280 309 307 328 347 313 324 311 354 85 340 306 342 300 292 304 279 186 255 316 294 281 68 228 290 294 260 75 103 261 278 254 251 256 356 36 347 322 323 320 337 333 339 335 331 329 327 328 325 327 330 331 337 346 344 350 356 356 357 354 1 360 355 352 353 350 350
305 302 303 296 280 247 245 254 160 55 10 311 303 305 291 278 244 246 243 238 216 227 278 310 290 337 347 334 316 21 347 306 351 293 317 307 323 1 303 276 279 47 254 241 228 248 273 133 262 272 267 268 322 82 79 21 353 332 322 337 341 338 334 333 331 326 325 326 330 333 336 341 349 359 359 1 2 8 6 9 4 359 1 1 0 358 0
305 299 293 274 227 225 226 98 26 328 299 268 266 278 181 184 231 210 206 240 162 177 234 239 266 298 307 287 304 74 275 296 322 318 311 50 291 267 188 270 307 355 282 301 350 58 249 259 262 281 284 278 93 105 86 43 352 343 344 343 343 336 332 336 334 330 330 329 333 337 336 346 358 5 2 7 14 18 18 15 9 11 9 7 5 3 6
296 279 264 242 287 4 17 37 154 148 259 263 265 267 217 180 253 250 238 210 166 233 213 268 284 236 297 300 311 109 350 325 302 290 287 89 342 306 9 305 109 237 297 287 223 71 271 270 268 257 265 134 115 102 82 13 355 357 347 343 345 339 334 328 334 338 331 327 322 329 341 347 350 359 9 15 28 41 32 26 21 18 14 11 7 5 8
295 323 343 309 319 11 339 128 132 252 248 250 202 210 309 287 272 266 154 263 255 238 138 253 173 284 296 311 324 304 87 297 307 311 330 306 84 295 14 295 338 320 286 286 16 137 276 280 295 284 302 67 106 73 340 19 353 349 348 348 338 333 338 331 337 349 330 326 347 20 9 2 24 23 25 29 34 33 32 30 18 11 10 7 3 6 6
340 321 312 330 347 326 312 317 298 255 265 293 299 310 320 272 241 272 320 273 270 269 184 290 296 279 116 295 272 279 157 226 292 295 287 283 105 208 274 276 338 292 286 275 120 221 273 275 278 280 2 107 33 36 350 354 355 351 357 349 344 334 343 344 351 348 340 343 15 27 38 91 55 46 41 46 46 42 35 27 17 11 7 5 358 359 351
341 310 311 309 292 277 273 266 241 258 262 284 278 251 236 249 250 275 228 278 290 311 156 118 265 305 304 302 303 326 310 63 328 288 290 282 142 288 285 286 279 275 277 283 324 280 275 268 261 266 131 127 103 76 36 12 4 345 352 344 345 343 346 351 345 6 23 12 38 105 90 58 52 46 39 42 49 50 42 26 13 9 1 349 339 343 344
301 282 259 273 275 273 248 264 224 176 211 223 226 274 224 252 230 260 298 243 122 248 296 175 262 302 271 86 289 165 283 43 297 295 269 272 299 250 279 274 273 261 272 290 264 276 273 278 278 284 201 158 120 64 57 20 353 353 350 344 345 358 359 353 6 39 49 84 148 103 74 64 61 51 38 35 50 71 69 66 348 317 319 321 330 336 331
288 272 251 217 253 260 206 260 169 168 242 205 203 223 207 237 238 179 230 243 134 228 165 267 291 299 291 146 275 301 271 198 142 275 268 274 257 266 269 265 260 275 299 262 266 262 272 274 270 277 275 289 110 105 63 12 358 356 340 337 334 343 353 7 32 93 121 135 110 86 79 69 63 55 39 5 9 47 46 89 174 274 328 355 354 356 351
292 275 265 304 316 269 128 279 194 193 234 220 213 252 264 272 300 276 298 106 202 281 309 291 299 292 283 314 314 260 236 283 126 214 272 324 299 284 263 269 282 292 276 281 276 280 276 276 273 274 134 83 87 80 52 3 319 221 261 317 337 359 359 6 102 137 145 133 110 87 73 71 79 75 96 315 310 351 21 43 12 15 10 359 355 357 11
293 298 284 240 263 251 223 248 197 237 235 220 226 228 254 278 303 296 331 324 295 302 283 290 285 281 284 279 258 284 248 267 275 258 258 241 251 260 265 285 284 274 273 267 271 269 270 267 284 88 96 93 93 94 233 337 342 331 333 334 348 2 22 67 154 169 156 142 133 126 124 103 83 80 57 58 14 358 11 26 28 12 10 10 6 1 2
274 260 249 253 259 255 228 249 235 232 265 263 246 258 280 312 332 321 324 321 294 309 305 292 288 299 292 285 269 239 240 239 251 258 270 260 256 276 272 271 266 256 262 264 264 273 274 282 105 129 116 138 153 175 190 356 327 303 327 328 288 226 95 151 162 172 167 160 146 137 131 140 170 170 133 30 349 48 49 40 28 17 15 14 17 11 7
289 294 289 263 254 245 231 235 246 263 261 271 282 285 284 284 283 279 283 302 309 304 280 294 281 272 258 224 224 268 281 256 250 250 244 272 276 262 272 256 251 255 252 264 264 264 263 270 137 152 150 167 141 189 170 312 304 305 335 322 285 185 183 192 194 182 172 178 175 160 157 199 210 179 130 104 45 35 49 37 30 21 18 29 25 25 17
285 304 283 268 259 264 280 299 302 290 287 292 295 279 260 260 261 273 286 265 260 267 281 278 285 291 265 261 263 257 248 224 251 252 224 224 237 240 231 247 253 261 256 259 267 273 281 297 136 157 152 147 151 173 317 329 313 315 320 318 283 213 201 190 180 182 194 196 188 178 188 205 258 194 137 143 93 63 36 37 26 40 28 24 30 32 24
259 253 247 254 277 281 277 275 265 265 271 274 276 280 280 270 268 271 281 273 265 265 265 260 246 264 286 303 275 262 259 246 248 255 245 244 240 242 245 254 250 256 267 264 268 279 287 290 272 258 143 142 167 177 213 310 305 289 299 303 241 199 181 189 195 187 199 205 199 201 205 221 246 239 194 138 134 169 101 31 31 49 49 37 32 42 37
226 244 257 256 260 277 303 294 297 302 301 295 295 292 297 277 272 277 33 309 251 251 252 256 251 236 243 252 242 245 241 264 245 240 243 250 248 249 243 249 255 262 269 279 284 286 288 305 306 297 135 180 165 169 219 285 287 286 288 279 232 189 178 177 201 200 202 207 210 218 224 222 246 261 156 188 191 207 196 177 179 60 79 88 59 34 54
231 232 244 250 253 261 265 274 275 273 278 281 283 291 309 291 280 269 106 156 266 255 256 252 247 246 228 226 227 254 288 264 248 251 247 241 232 245 248 251 261 263 271 274 275 285 302 288 254 119 113 294 248 172 221 282 281 276 275 266 246 208 180 185 193 205 205 205 208 214 221 231 226 257 250 240 246 245 231 164 128 119 76 77 72 65 59